FW7449 Weather Reports


time (UTC)temp
C
wind
direction
speed
KPH
gust
KPH
rain 1hr
cm
rain 24hr
cm
rain mn
cm
humidity
%
barometer
mb
20260906060059 22 0 0.0 0.0 0.00 0.23 0.00 89 1013.7
20260906054544 22 0 0.0 0.0 0.00 0.23 0.00 89 1013.7
20260906053050 22 0 0.0 0.0 0.00 0.23 0.00 89 1013.9
20260906051550 22 0 0.0 0.0 0.00 0.23 0.00 89 1014.0
20260906050048 22 0 0.0 0.0 0.00 0.23 0.00 89 1014.0
20260906044542 22 0 0.0 0.0 0.00 0.23 0.00 89 1014.0
20260906043050 22 0 0.0 0.0 0.00 0.23 0.00 89 1014.1
20260906041547 22 0 0.0 1.6 0.00 0.23 0.00 89 1014.2
20260906040055 22 0 0.0 0.0 0.00 0.23 0.00 88 1014.1
20260906034601 23 0 0.0 1.6 0.00 0.23 0.23 88 1014.4
20260906033047 23 0 0.0 1.6 0.00 0.23 0.23 88 1014.4
20260906031549 23 0 0.0 1.6 0.00 0.23 0.23 88 1014.4
20260906030054 23 0 0.0 3.2 0.00 0.23 0.23 88 1014.3
20260906024553 23 0 0.0 0.0 0.00 0.23 0.23 88 1014.1
20260906023049 23 0 0.0 0.0 0.00 0.23 0.23 87 1014.1
20260906021557 23 0 0.0 0.0 0.00 0.23 0.23 87 1014.1
20260906020056 23 0 0.0 0.0 0.00 0.23 0.23 86 1014.0
20260906014552 24 0 0.0 0.0 0.00 0.23 0.23 85 1014.0
20260906013051 24 0 0.0 0.0 0.00 0.23 0.23 85 1013.9
20260906011552 25 0 0.0 0.0 0.00 0.23 0.23 83 1013.5
20260906010123 25 0 0.0 1.6 0.00 0.23 0.23 81 1013.5
20260906004614 25 0 0.0 1.6 0.00 0.23 0.23 81 1013.5
20260906003054 25 0 0.0 3.2 0.00 0.23 0.23 79 1013.2
20260906001601 26 0 0.0 0.0 0.00 0.23 0.23 80 1013.0
20260906000048 26 0 0.0 0.0 0.00 0.23 0.23 78 1013.1
20260905234545 27 0 0.0 0.0 0.00 0.23 0.23 75 1012.9
20260905233050 28 340 0.0 6.4 0.00 0.23 0.23 70 1013.0
20260905231550 28 355 0.0 4.8 0.00 0.23 0.23 68 1012.8
20260905230043 29 355 1.6 6.4 0.00 0.23 0.23 65 1012.8
20260905224550 30 0 1.6 8.0 0.00 0.23 0.23 64 1012.8
20260905223053 30 301 3.2 8.0 0.00 0.23 0.23 62 1012.9
20260905221554 30 355 0.0 6.4 0.00 0.23 0.23 61 1013.0
20260905220049 30 331 1.6 6.4 0.00 0.23 0.23 59 1013.0
20260905214553 30 294 1.6 14.5 0.00 0.23 0.23 63 1013.1
20260905213051 30 342 4.8 11.3 0.03 0.23 0.23 63 1013.3
20260905211549 29 277 1.6 8.0 0.03 0.23 0.23 64 1013.3
20260905210057 28 226 1.6 8.0 0.03 0.23 0.23 66 1013.1
20260905204552 28 255 1.6 14.5 0.03 0.23 0.23 69 1013.2
20260905203048 27 226 3.2 6.4 0.00 0.20 0.20 73 1013.4
20260905201547 26 225 3.2 16.1 0.00 0.20 0.20 75 1013.6
20260905200111 26 0 0.0 4.8 0.00 0.20 0.20 79 1013.7
20260905194542 25 226 0.0 4.8 0.00 0.20 0.20 82 1014.0
20260905193052 25 226 0.0 6.4 0.03 0.20 0.20 83 1014.1
20260905191546 25 0 3.2 6.4 0.03 0.20 0.20 83 1013.8
20260905190048 25 0 0.0 8.0 0.08 0.20 0.20 82 1014.1
20260905184554 25 0 0.0 6.4 0.13 0.20 0.20 83 1013.3
20260905183052 25 0 1.6 4.8 0.18 0.18 0.18 85 1013.4
20260905181546 24 0 0.0 3.2 0.18 0.18 0.18 85 1013.9
20260905180057 23 0 1.6 6.4 0.13 0.13 0.13 85 1014.4
20260905174552 26 71 1.6 35.4 0.08 0.08 0.08 73 1015.3
20260905173051 33 328 14.5 30.6 0.00 0.00 0.00 50 1015.2
20260905171540 36 335 6.4 14.5 0.00 0.00 0.00 49 1015.0
20260905170050 36 314 3.2 14.5 0.00 0.00 0.00 48 1015.0
20260905164549 36 0 3.2 8.0 0.00 0.00 0.00 50 1015.0
20260905163042 36 339 3.2 9.7 0.00 0.00 0.00 49 1015.2
20260905161552 35 5 1.6 8.0 0.00 0.00 0.00 52 1015.3
20260905160051 35 289 1.6 11.3 0.00 0.00 0.00 54 1015.7
20260905154541 35 278 3.2 11.3 0.00 0.00 0.00 55 1015.4
20260905153051 35 161 3.2 8.0 0.00 0.00 0.00 55 1015.2
20260905151558 34 0 1.6 6.4 0.00 0.00 0.00 57 1015.4
20260905150050 33 227 3.2 8.0 0.00 0.00 0.00 59 1015.3
20260905144554 33 0 0.0 6.4 0.00 0.00 0.00 60 1015.3
20260905143050 32 0 0.0 4.8 0.00 0.00 0.00 64 1015.4
20260905141541 31 236 0.0 4.8 0.00 0.00 0.00 67 1015.2
20260905140054 31 233 1.6 8.0 0.00 0.00 0.00 68 1015.3
20260905134549 30 324 0.0 6.4 0.00 0.00 0.00 71 1015.3
20260905133042 28 325 1.6 4.8 0.00 0.00 0.00 76 1015.5
20260905131602 27 309 1.6 6.4 0.00 0.00 0.00 80 1015.6
20260905130048 26 0 1.6 6.4 0.00 0.00 0.00 84 1015.8
20260905124546 25 336 1.6 6.4 0.00 0.00 0.00 86 1015.7
20260905123102 24 0 0.0 0.0 0.00 0.00 0.00 89 1015.6
20260905121551 23 0 0.0 0.0 0.00 0.00 0.00 91 1015.5
20260905120050 23 0 0.0 0.0 0.00 0.00 0.00 92 1015.5
20260905114548 23 0 0.0 0.0 0.00 0.00 0.00 93 1015.4
20260905113040 22 0 0.0 0.0 0.00 0.00 0.00 92 1015.2
20260905111556 22 0 0.0 0.0 0.00 0.00 0.00 92 1015.0
20260905110049 23 0 0.0 0.0 0.00 0.00 0.00 93 1014.8
20260905104544 23 0 0.0 0.0 0.00 0.00 0.00 92 1014.6
20260905103059 23 0 0.0 0.0 0.00 0.00 0.00 93 1014.6
20260905101550 22 0 0.0 0.0 0.00 0.00 0.00 93 1014.5
20260905100055 23 0 0.0 0.0 0.00 0.00 0.00 92 1014.5
20260905094546 23 0 0.0 0.0 0.00 0.00 0.00 92 1014.5
20260905093052 23 0 0.0 1.6 0.00 0.00 0.00 92 1014.4
20260905091552 23 0 0.0 3.2 0.00 0.00 0.00 92 1014.6
20260905090054 23 0 0.0 3.2 0.00 0.00 0.00 92 1014.4
20260905084605 23 320 1.6 4.8 0.00 0.00 0.00 92 1014.5
20260905083051 23 0 0.0 4.8 0.00 0.00 0.00 91 1014.8
20260905081547 23 0 0.0 1.6 0.00 0.00 0.00 91 1014.8
20260905080109 23 0 0.0 0.0 0.00 0.00 0.00 91 1014.9
20260905074551 23 0 0.0 3.2 0.00 0.00 0.00 90 1015.2
20260905073050 23 0 0.0 3.2 0.00 0.00 0.00 89 1015.3
20260905071546 24 0 0.0 3.2 0.00 0.00 0.00 88 1015.3
20260905070053 24 321 3.2 6.4 0.00 0.00 0.00 88 1015.4
20260905064559 25 0 0.0 1.6 0.00 0.00 0.00 87 1015.4
20260905063049 25 0 0.0 1.6 0.00 0.00 0.00 87 1015.7
20260905061551 25 0 0.0 1.6 0.00 0.00 0.00 87 1015.9